• In Österreich
  • Länderverzeichnis
  • Für 7 Tage
  • Wassertemperatur
  • Satellitenkarten
  • Wetterkarte
  • News
  • Widgets
  • user-avatar
    Anmelden

    Stündliche Wetter Bogucice

    Heute, 15 August, Mittwoch

    Zeit Temperatur Niederschläge Wind Luftdruck Luftfeuchtigkeit
    00:00 +20°C° 0 mm 3 m/S 748 mmHg 69%
    01:00 +19°C° 0 mm 3 m/S 748 mmHg 73%
    02:00 +19°C° 0 mm 3 m/S 748 mmHg 77%
    03:00 +18°C° 0 mm 4 m/S 748 mmHg 82%
    04:00 +18°C° 0 mm 4 m/S 749 mmHg 86%
    05:00 +18°C° 0 mm 4 m/S 749 mmHg 84%
    06:00 +19°C° 0 mm 4 m/S 749 mmHg 83%
    07:00 +20°C° 0 mm 5 m/S 750 mmHg 81%
    08:00 +20°C° 0,1 mm 5 m/S 750 mmHg 77%
    09:00 +21°C° 0,1 mm 5 m/S 750 mmHg 73%
    10:00 +22°C° 0,1 mm 5 m/S 751 mmHg 69%
    11:00 +23°C° 0,2 mm 5 m/S 751 mmHg 66%
    12:00 +23°C° 0,2 mm 5 m/S 751 mmHg 63%
    13:00 +25°C° 0,2 mm 5 m/S 751 mmHg 60%
    14:00 +25°C° 0,1 mm 5 m/S 751 mmHg 59%
    15:00 +25°C° 0,1 mm 5 m/S 751 mmHg 58%
    16:00 +25°C° 0,1 mm 5 m/S 751 mmHg 57%
    17:00 +23°C° 0,1 mm 4 m/S 751 mmHg 62%
    18:00 +22°C° 0,1 mm 3 m/S 751 mmHg 66%
    19:00 +21°C° 0,1 mm 2 m/S 751 mmHg 70%
    20:00 +20°C° 0 mm 2 m/S 752 mmHg 73%
    21:00 +20°C° 0 mm 2 m/S 752 mmHg 76%
    22:00 +19°C° 0 mm 2 m/S 753 mmHg 80%
    23:00 +18°C° 0 mm 2 m/S 753 mmHg 81%

    Morgen, 16 August, Donnerstag

    Zeit Temperatur Niederschläge Wind Luftdruck Luftfeuchtigkeit
    00:00 +18°C° 0 mm 2 m/S 753 mmHg 83%
    01:00 +18°C° 0 mm 1 m/S 753 mmHg 85%
    02:00 +18°C° 0 mm 1 m/S 753 mmHg 85%
    03:00 +16°C° 0 mm 1 m/S 753 mmHg 86%
    04:00 +16°C° 0 mm 1 m/S 753 mmHg 87%
    05:00 +18°C° 0 mm 1 m/S 753 mmHg 81%
    06:00 +19°C° 0 mm 1 m/S 753 mmHg 76%
    07:00 +20°C° 0 mm 1 m/S 754 mmHg 70%
    08:00 +22°C° 0 mm 1 m/S 754 mmHg 65%
    09:00 +23°C° 0 mm 1 m/S 754 mmHg 59%
    10:00 +25°C° 0 mm 1 m/S 753 mmHg 53%
    11:00 +26°C° 0 mm 1 m/S 753 mmHg 51%
    12:00 +26°C° 0 mm 1 m/S 753 mmHg 48%
    13:00 +27°C° 0 mm 1 m/S 752 mmHg 45%
    14:00 +27°C° 0 mm 1 m/S 752 mmHg 45%
    15:00 +27°C° 0 mm 1 m/S 752 mmHg 44%
    16:00 +25°C° 0 mm 0 m/S 752 mmHg 44%
    17:00 +26°C° 0 mm 1 m/S 752 mmHg 48%
    18:00 +25°C° 0 mm 1 m/S 752 mmHg 51%
    19:00 +24°C° 0 mm 1 m/S 752 mmHg 55%
    20:00 +23°C° 0 mm 1 m/S 752 mmHg 56%
    21:00 +21°C° 0 mm 2 m/S 752 mmHg 58%
    22:00 +21°C° 0 mm 2 m/S 752 mmHg 59%
    23:00 +20°C° 0 mm 2 m/S 752 mmHg 62%

    übermorgen, 17 August, Freitag

    Zeit Temperatur Niederschläge Wind Luftdruck Luftfeuchtigkeit
    00:00 +20°C° 0 mm 2 m/S 752 mmHg 64%
    01:00 +19°C° 0 mm 2 m/S 752 mmHg 66%
    02:00 +19°C° 0 mm 2 m/S 752 mmHg 68%
    03:00 +18°C° 0 mm 2 m/S 751 mmHg 70%
    04:00 +18°C° 0 mm 2 m/S 751 mmHg 73%
    05:00 +19°C° 0 mm 2 m/S 751 mmHg 70%
    06:00 +20°C° 0 mm 2 m/S 751 mmHg 68%
    07:00 +21°C° 0 mm 3 m/S 751 mmHg 66%
    08:00 +24°C° 0 mm 3 m/S 751 mmHg 60%
    09:00 +26°C° 0 mm 3 m/S 751 mmHg 54%
    10:00 +27°C° 0 mm 3 m/S 751 mmHg 48%
    11:00 +28°C° 0 mm 3 m/S 751 mmHg 45%
    12:00 +29°C° 0 mm 3 m/S 751 mmHg 42%
    13:00 +30°C° 0 mm 3 m/S 750 mmHg 39%
    14:00 +30°C° 0 mm 2 m/S 750 mmHg 38%
    15:00 +30°C° 0 mm 2 m/S 750 mmHg 37%
    16:00 +30°C° 0 mm 2 m/S 750 mmHg 37%
    17:00 +29°C° 0 mm 1 m/S 750 mmHg 40%
    18:00 +27°C° 0 mm 1 m/S 750 mmHg 44%
    19:00 +26°C° 0 mm 1 m/S 750 mmHg 48%
    20:00 +25°C° 0 mm 1 m/S 750 mmHg 49%
    21:00 +25°C° 0 mm 2 m/S 750 mmHg 51%
    22:00 +24°C° 0 mm 2 m/S 750 mmHg 52%
    23:00 +24°C° 0 mm 2 m/S 751 mmHg 54%

    18 August, Samstag

    Zeit Temperatur Niederschläge Wind Luftdruck Luftfeuchtigkeit
    00:00 +23°C° 0 mm 2 m/S 751 mmHg 56%
    01:00 +23°C° 0 mm 2 m/S 751 mmHg 58%
    02:00 +21°C° 0 mm 2 m/S 751 mmHg 62%
    03:00 +21°C° 0 mm 2 m/S 751 mmHg 66%
    04:00 +20°C° 0 mm 2 m/S 752 mmHg 70%
    05:00 +21°C° 0,1 mm 2 m/S 752 mmHg 71%
    06:00 +21°C° 0,1 mm 2 m/S 752 mmHg 72%
    07:00 +23°C° 0,1 mm 2 m/S 753 mmHg 73%
    08:00 +22°C° 0 mm 3 m/S 753 mmHg 71%
    09:00 +24°C° 0 mm 3 m/S 753 mmHg 69%
    10:00 +25°C° 0 mm 3 m/S 753 mmHg 67%
    11:00 +26°C° 0,2 mm 3 m/S 753 mmHg 64%
    12:00 +26°C° 0,2 mm 3 m/S 753 mmHg 61%
    13:00 +27°C° 0,2 mm 3 m/S 753 mmHg 58%
    14:00 +27°C° 0,4 mm 3 m/S 753 mmHg 56%
    15:00 +27°C° 0,4 mm 3 m/S 753 mmHg 53%
    16:00 +28°C° 0,4 mm 3 m/S 753 mmHg 51%
    17:00 +26°C° 0 mm 3 m/S 753 mmHg 53%
    18:00 +25°C° 0 mm 3 m/S 753 mmHg 55%
    19:00 +24°C° 0 mm 2 m/S 753 mmHg 57%
    20:00 +23°C° 0 mm 2 m/S 754 mmHg 56%
    21:00 +21°C° 0 mm 2 m/S 754 mmHg 55%
    22:00 +20°C° 0 mm 2 m/S 754 mmHg 54%
    23:00 +19°C° 0 mm 2 m/S 754 mmHg 54%

    19 August, Sonntag

    Zeit Temperatur Niederschläge Wind Luftdruck Luftfeuchtigkeit
    00:00 +20°C° 0 mm 1 m/S 754 mmHg 55%
    01:00 +19°C° 0 mm 1 m/S 754 mmHg 55%
    02:00 +19°C° 0 mm 1 m/S 754 mmHg 56%
    03:00 +18°C° 0 mm 1 m/S 754 mmHg 56%
    04:00 +18°C° 0 mm 1 m/S 755 mmHg 57%
    05:00 +19°C° 0 mm 1 m/S 755 mmHg 56%
    06:00 +19°C° 0 mm 2 m/S 755 mmHg 54%
    07:00 +20°C° 0 mm 2 m/S 755 mmHg 53%
    08:00 +23°C° 0 mm 2 m/S 755 mmHg 49%
    09:00 +25°C° 0 mm 2 m/S 755 mmHg 44%
    10:00 +26°C° 0 mm 3 m/S 755 mmHg 40%
    11:00 +27°C° 0 mm 3 m/S 755 mmHg 39%
    12:00 +28°C° 0 mm 3 m/S 755 mmHg 38%
    13:00 +29°C° 0 mm 3 m/S 755 mmHg 37%
    14:00 +29°C° 0 mm 3 m/S 754 mmHg 37%
    15:00 +29°C° 0 mm 3 m/S 754 mmHg 38%
    16:00 +29°C° 0 mm 3 m/S 754 mmHg 39%
    17:00 +27°C° 0 mm 3 m/S 754 mmHg 44%
    18:00 +26°C° 0 mm 2 m/S 754 mmHg 49%
    19:00 +24°C° 0 mm 1 m/S 754 mmHg 54%
    20:00 +24°C° 0 mm 1 m/S 754 mmHg 56%
    21:00 +23°C° 0 mm 1 m/S 754 mmHg 58%
    22:00 +22°C° 0 mm 1 m/S 755 mmHg 59%
    23:00 +22°C° 0 mm 1 m/S 755 mmHg 62%

    20 August, Montag

    Zeit Temperatur Niederschläge Wind Luftdruck Luftfeuchtigkeit
    00:00 +21°C° 0 mm 1 m/S 755 mmHg 65%
    01:00 +20°C° 0 mm 2 m/S 755 mmHg 68%
    02:00 +19°C° 0 mm 2 m/S 755 mmHg 72%
    03:00 +19°C° 0 mm 2 m/S 755 mmHg 77%
    04:00 +18°C° 0 mm 2 m/S 755 mmHg 81%
    05:00 +19°C° 0 mm 2 m/S 755 mmHg 80%
    06:00 +19°C° 0 mm 2 m/S 755 mmHg 79%
    07:00 +20°C° 0 mm 2 m/S 755 mmHg 78%
    08:00 +23°C° 0 mm 2 m/S 755 mmHg 70%
    09:00 +24°C° 0 mm 2 m/S 756 mmHg 61%
    10:00 +25°C° 0 mm 3 m/S 756 mmHg 53%
    11:00 +26°C° 0 mm 3 m/S 755 mmHg 50%
    12:00 +27°C° 0 mm 3 m/S 755 mmHg 46%
    13:00 +28°C° 0 mm 3 m/S 755 mmHg 42%
    14:00 +28°C° 0 mm 3 m/S 755 mmHg 42%
    15:00 +28°C° 0 mm 3 m/S 755 mmHg 42%
    16:00 +28°C° 0 mm 3 m/S 755 mmHg 42%
    17:00 +27°C° 0 mm 2 m/S 755 mmHg 46%
    18:00 +25°C° 0 mm 2 m/S 755 mmHg 50%
    19:00 +24°C° 0 mm 2 m/S 755 mmHg 54%
    20:00 +23°C° 0 mm 2 m/S 755 mmHg 55%
    21:00 +21°C° 0 mm 2 m/S 755 mmHg 56%
    22:00 +22°C° 0 mm 1 m/S 755 mmHg 57%
    23:00 +20°C° 0 mm 2 m/S 755 mmHg 59%
    Mehr zeigen